• In Hungary
  • List of Countries
  • For 7 days
  • Water Temperature
  • Satellite Maps
  • Weather Map
  • News
  • Weather Widgets
  • user-avatar
    Login

    Hourly Weather Beinasco

    Today, 26 September, Wednesday

    Time Temperature Precipitation Wind Pressure Humidity
    00:00 +13°C° 0 mm 2 mps 751 mmHg 73%
    01:00 +13°C° 0 mm 2 mps 751 mmHg 73%
    02:00 +13°C° 0 mm 2 mps 752 mmHg 73%
    03:00 +13°C° 0 mm 2 mps 752 mmHg 73%
    04:00 +12°C° 0 mm 2 mps 752 mmHg 73%
    05:00 +12°C° 0 mm 1 mps 752 mmHg 72%
    06:00 +12°C° 0 mm 1 mps 752 mmHg 72%
    07:00 +12°C° 0 mm 1 mps 752 mmHg 72%
    08:00 +14°C° 0 mm 2 mps 753 mmHg 65%
    09:00 +15°C° 0 mm 2 mps 753 mmHg 59%
    10:00 +17°C° 0 mm 2 mps 753 mmHg 52%
    11:00 +18°C° 0 mm 2 mps 752 mmHg 50%
    12:00 +20°C° 0 mm 2 mps 752 mmHg 48%
    13:00 +21°C° 0 mm 2 mps 752 mmHg 46%
    14:00 +21°C° 0 mm 2 mps 751 mmHg 46%
    15:00 +21°C° 0 mm 2 mps 751 mmHg 47%
    16:00 +21°C° 0 mm 2 mps 751 mmHg 48%
    17:00 +20°C° 0 mm 1 mps 751 mmHg 55%
    18:00 +18°C° 0 mm 1 mps 751 mmHg 62%
    19:00 +14°C° 0 mm 0 mps 751 mmHg 70%
    20:00 +14°C° 0 mm 0 mps 751 mmHg 71%
    21:00 +15°C° 0 mm 1 mps 751 mmHg 71%
    22:00 +14°C° 0 mm 1 mps 751 mmHg 72%
    23:00 +14°C° 0 mm 1 mps 751 mmHg 72%

    Tomorrow, 27 September, Thursday

    Time Temperature Precipitation Wind Pressure Humidity
    00:00 +14°C° 0 mm 1 mps 751 mmHg 73%
    01:00 +14°C° 0 mm 1 mps 751 mmHg 73%
    02:00 +14°C° 0 mm 1 mps 751 mmHg 73%
    03:00 +14°C° 0 mm 1 mps 750 mmHg 73%
    04:00 +14°C° 0 mm 1 mps 750 mmHg 73%
    05:00 +14°C° 0 mm 1 mps 750 mmHg 72%
    06:00 +14°C° 0 mm 1 mps 750 mmHg 71%
    07:00 +14°C° 0 mm 1 mps 749 mmHg 71%
    08:00 +18°C° 0 mm 1 mps 749 mmHg 63%
    09:00 +20°C° 0 mm 1 mps 749 mmHg 55%
    10:00 +23°C° 0 mm 1 mps 749 mmHg 47%
    11:00 +24°C° 0 mm 1 mps 749 mmHg 45%
    12:00 +25°C° 0 mm 2 mps 749 mmHg 43%
    13:00 +27°C° 0 mm 2 mps 748 mmHg 41%
    14:00 +27°C° 0 mm 2 mps 748 mmHg 42%
    15:00 +26°C° 0 mm 2 mps 747 mmHg 43%
    16:00 +26°C° 0 mm 2 mps 747 mmHg 44%
    17:00 +24°C° 0 mm 1 mps 746 mmHg 52%
    18:00 +22°C° 0 mm 1 mps 746 mmHg 60%
    19:00 +19°C° 0 mm 1 mps 746 mmHg 68%
    20:00 +19°C° 0 mm 1 mps 746 mmHg 68%
    21:00 +19°C° 0 mm 1 mps 746 mmHg 68%
    22:00 +18°C° 0 mm 1 mps 746 mmHg 68%
    23:00 +18°C° 0 mm 1 mps 745 mmHg 67%

    Day after tomorrow, 28 September, Friday

    Time Temperature Precipitation Wind Pressure Humidity
    00:00 +18°C° 0 mm 1 mps 745 mmHg 67%
    01:00 +16°C° 0 mm 1 mps 744 mmHg 66%
    02:00 +16°C° 0 mm 1 mps 744 mmHg 64%
    03:00 +16°C° 0 mm 1 mps 743 mmHg 63%
    04:00 +16°C° 0 mm 1 mps 743 mmHg 61%
    05:00 +16°C° 0 mm 1 mps 742 mmHg 59%
    06:00 +16°C° 0 mm 1 mps 742 mmHg 57%
    07:00 +16°C° 0 mm 1 mps 742 mmHg 55%
    08:00 +20°C° 0 mm 1 mps 742 mmHg 50%
    09:00 +22°C° 0 mm 1 mps 741 mmHg 45%
    10:00 +25°C° 0 mm 1 mps 741 mmHg 40%
    11:00 +26°C° 0 mm 1 mps 741 mmHg 38%
    12:00 +27°C° 0 mm 2 mps 740 mmHg 37%
    13:00 +28°C° 0 mm 2 mps 740 mmHg 35%
    14:00 +28°C° 0 mm 2 mps 739 mmHg 37%
    15:00 +28°C° 0 mm 2 mps 739 mmHg 38%
    16:00 +28°C° 0 mm 2 mps 738 mmHg 39%
    17:00 +25°C° 0 mm 1 mps 738 mmHg 47%
    18:00 +23°C° 0 mm 1 mps 738 mmHg 54%
    19:00 +21°C° 0 mm 1 mps 738 mmHg 62%
    20:00 +20°C° 0 mm 1 mps 738 mmHg 63%
    21:00 +20°C° 0 mm 1 mps 738 mmHg 64%
    22:00 +19°C° 0 mm 1 mps 738 mmHg 66%
    23:00 +19°C° 0 mm 1 mps 738 mmHg 66%

    29 September, Saturday

    Time Temperature Precipitation Wind Pressure Humidity
    00:00 +18°C° 0 mm 1 mps 738 mmHg 66%
    01:00 +18°C° 0 mm 1 mps 738 mmHg 67%
    02:00 +18°C° 0 mm 1 mps 738 mmHg 66%
    03:00 +18°C° 0 mm 1 mps 738 mmHg 66%
    04:00 +16°C° 0 mm 1 mps 737 mmHg 66%
    05:00 +16°C° 0 mm 1 mps 737 mmHg 65%
    06:00 +16°C° 0 mm 1 mps 737 mmHg 65%
    07:00 +16°C° 0 mm 1 mps 737 mmHg 65%
    08:00 +19°C° 0 mm 1 mps 738 mmHg 58%
    09:00 +22°C° 0 mm 1 mps 738 mmHg 52%
    10:00 +24°C° 0 mm 1 mps 738 mmHg 45%
    11:00 +25°C° 0 mm 1 mps 737 mmHg 44%
    12:00 +26°C° 0 mm 2 mps 737 mmHg 42%
    13:00 +27°C° 0 mm 2 mps 737 mmHg 40%
    14:00 +26°C° 0 mm 2 mps 737 mmHg 41%
    15:00 +26°C° 0 mm 2 mps 736 mmHg 42%
    16:00 +26°C° 0 mm 2 mps 736 mmHg 43%
    17:00 +24°C° 0 mm 2 mps 737 mmHg 50%
    18:00 +22°C° 0 mm 1 mps 737 mmHg 57%
    19:00 +20°C° 0 mm 1 mps 737 mmHg 64%
    20:00 +19°C° 0 mm 2 mps 738 mmHg 66%
    21:00 +18°C° 0 mm 2 mps 738 mmHg 69%
    22:00 +18°C° 0 mm 3 mps 739 mmHg 71%
    23:00 +17°C° 0 mm 3 mps 739 mmHg 74%

    30 September, Sunday

    Time Temperature Precipitation Wind Pressure Humidity
    00:00 +17°C° 0 mm 2 mps 739 mmHg 77%
    01:00 +16°C° 0 mm 2 mps 739 mmHg 80%
    02:00 +16°C° 0 mm 2 mps 739 mmHg 81%
    03:00 +16°C° 0 mm 2 mps 739 mmHg 81%
    04:00 +15°C° 0 mm 2 mps 738 mmHg 82%
    05:00 +15°C° 0 mm 2 mps 739 mmHg 82%
    06:00 +15°C° 0 mm 2 mps 739 mmHg 82%
    07:00 +15°C° 0 mm 2 mps 739 mmHg 82%
    08:00 +15°C° 0 mm 2 mps 739 mmHg 78%
    09:00 +16°C° 0 mm 2 mps 739 mmHg 74%
    10:00 +17°C° 0 mm 2 mps 739 mmHg 70%
    11:00 +18°C° 0 mm 2 mps 739 mmHg 66%
    12:00 +19°C° 0 mm 2 mps 739 mmHg 63%
    13:00 +19°C° 0 mm 2 mps 739 mmHg 59%
    14:00 +20°C° 0 mm 2 mps 738 mmHg 58%
    15:00 +20°C° 0 mm 2 mps 738 mmHg 57%
    16:00 +20°C° 0 mm 2 mps 738 mmHg 57%
    17:00 +18°C° 0 mm 2 mps 738 mmHg 63%
    18:00 +18°C° 0 mm 1 mps 738 mmHg 70%
    19:00 +15°C° 0 mm 1 mps 738 mmHg 76%
    20:00 +15°C° 0 mm 1 mps 739 mmHg 78%
    21:00 +15°C° 0 mm 1 mps 739 mmHg 79%
    22:00 +14°C° 0 mm 1 mps 739 mmHg 80%
    23:00 +14°C° 0 mm 1 mps 739 mmHg 80%

    1 October, Monday

    Time Temperature Precipitation Wind Pressure Humidity
    00:00 +14°C° 0 mm 1 mps 739 mmHg 79%
    01:00 +14°C° 0 mm 1 mps 739 mmHg 79%
    02:00 +13°C° 0 mm 1 mps 738 mmHg 78%
    03:00 +13°C° 0 mm 1 mps 738 mmHg 77%
    04:00 +13°C° 0 mm 1 mps 738 mmHg 76%
    05:00 +13°C° 0 mm 1 mps 738 mmHg 74%
    06:00 +13°C° 0 mm 1 mps 738 mmHg 72%
    07:00 +13°C° 0 mm 1 mps 738 mmHg 70%
    08:00 +15°C° 0 mm 1 mps 738 mmHg 63%
    09:00 +18°C° 0 mm 1 mps 738 mmHg 57%
    10:00 +21°C° 0 mm 1 mps 739 mmHg 50%
    11:00 +22°C° 0 mm 1 mps 738 mmHg 48%
    12:00 +23°C° 0 mm 2 mps 738 mmHg 45%
    13:00 +24°C° 0 mm 2 mps 738 mmHg 42%
    14:00 +24°C° 0 mm 2 mps 738 mmHg 43%
    15:00 +24°C° 0 mm 2 mps 738 mmHg 43%
    16:00 +24°C° 0 mm 1 mps 738 mmHg 43%
    17:00 +22°C° 0 mm 1 mps 738 mmHg 50%
    18:00 +20°C° 0 mm 1 mps 739 mmHg 57%
    19:00 +18°C° 0 mm 1 mps 739 mmHg 64%
    20:00 +18°C° 0 mm 1 mps 739 mmHg 66%
    21:00 +18°C° 0 mm 1 mps 740 mmHg 67%
    22:00 +16°C° 0 mm 1 mps 740 mmHg 69%
    23:00 +16°C° 0 mm 1 mps 740 mmHg 69%
    Show more